When you browse on this site, cookies collect data to enhance your experience and personalize the content and advertising you see.
Visit our Privacy Policy to learn more. By continuing to use the site, you agree to this use of cookies and data.
  • In United Kingdom
  • List of Countries
  • For 7 days
  • Water Temperature
  • Satellite Maps
  • Weather Map
  • Weather Widgets
  • user-avatar
    Login

    Hourly Weather Valledupar

    Today, 25 June, Tuesday

    Time Temperature Precipitation Wind Pressure Humidity
    00:00 +26°C° 3.6 mm 1 mps 744 mmHg 96%
    01:00 +26°C° 3.6 mm 1 mps 743 mmHg 98%
    02:00 +26°C° 1.9 mm 1 mps 743 mmHg 96%
    03:00 +25°C° 1.9 mm 2 mps 743 mmHg 95%
    04:00 +25°C° 1.9 mm 2 mps 743 mmHg 94%
    05:00 +25°C° 0.5 mm 2 mps 744 mmHg 92%
    06:00 +25°C° 0.5 mm 2 mps 744 mmHg 91%
    07:00 +25°C° 0.5 mm 2 mps 744 mmHg 90%
    08:00 +27°C° 0.2 mm 2 mps 744 mmHg 85%
    09:00 +28°C° 0.2 mm 2 mps 744 mmHg 80%
    10:00 +30°C° 0.2 mm 2 mps 744 mmHg 75%
    11:00 +31°C° 0 mm 2 mps 744 mmHg 69%
    12:00 +34°C° 0 mm 2 mps 744 mmHg 63%
    13:00 +35°C° 0 mm 2 mps 743 mmHg 57%
    14:00 +35°C° 0.2 mm 2 mps 743 mmHg 60%
    15:00 +34°C° 0.2 mm 2 mps 742 mmHg 64%
    16:00 +34°C° 0.2 mm 2 mps 742 mmHg 68%
    17:00 +32°C° 0.3 mm 2 mps 742 mmHg 74%
    18:00 +30°C° 0.3 mm 2 mps 742 mmHg 80%
    19:00 +28°C° 0.3 mm 2 mps 743 mmHg 86%
    20:00 +28°C° 0.1 mm 2 mps 743 mmHg 84%
    21:00 +27°C° 0.1 mm 2 mps 743 mmHg 82%
    22:00 +27°C° 0.1 mm 2 mps 744 mmHg 79%
    23:00 +27°C° 0 mm 2 mps 744 mmHg 78%

    Tomorrow, 26 June, Wednesday

    Time Temperature Precipitation Wind Pressure Humidity
    00:00 +27°C° 0 mm 2 mps 743 mmHg 76%
    01:00 +27°C° 0 mm 2 mps 743 mmHg 75%
    02:00 +27°C° 0 mm 2 mps 743 mmHg 74%
    03:00 +27°C° 0 mm 2 mps 743 mmHg 74%
    04:00 +27°C° 0 mm 2 mps 743 mmHg 73%
    05:00 +27°C° 0 mm 2 mps 743 mmHg 73%
    06:00 +27°C° 0 mm 2 mps 743 mmHg 73%
    07:00 +28°C° 0 mm 1 mps 743 mmHg 73%
    08:00 +30°C° 0 mm 2 mps 743 mmHg 69%
    09:00 +31°C° 0 mm 2 mps 743 mmHg 66%
    10:00 +34°C° 0 mm 2 mps 743 mmHg 62%
    11:00 +35°C° 0.1 mm 3 mps 743 mmHg 59%
    12:00 +36°C° 0.1 mm 3 mps 743 mmHg 57%
    13:00 +37°C° 0.1 mm 3 mps 742 mmHg 54%
    14:00 +36°C° 0.2 mm 3 mps 741 mmHg 54%
    15:00 +36°C° 0.2 mm 3 mps 741 mmHg 54%
    16:00 +36°C° 0.2 mm 3 mps 740 mmHg 54%
    17:00 +34°C° 0 mm 3 mps 740 mmHg 55%
    18:00 +31°C° 0 mm 3 mps 741 mmHg 56%
    19:00 +29°C° 0 mm 3 mps 741 mmHg 57%
    20:00 +28°C° 0 mm 3 mps 741 mmHg 58%
    21:00 +28°C° 0 mm 3 mps 742 mmHg 59%
    22:00 +28°C° 0 mm 3 mps 742 mmHg 60%
    23:00 +28°C° 0 mm 3 mps 742 mmHg 58%

    Day after tomorrow, 27 June, Thursday

    Time Temperature Precipitation Wind Pressure Humidity
    00:00 +28°C° 0 mm 3 mps 742 mmHg 57%
    01:00 +27°C° 0 mm 4 mps 742 mmHg 56%
    02:00 +27°C° 0 mm 3 mps 742 mmHg 55%
    03:00 +27°C° 0 mm 3 mps 741 mmHg 54%
    04:00 +27°C° 0 mm 3 mps 741 mmHg 53%
    05:00 +27°C° 0 mm 3 mps 742 mmHg 55%
    06:00 +27°C° 0 mm 3 mps 742 mmHg 58%
    07:00 +27°C° 0 mm 3 mps 742 mmHg 61%
    08:00 +29°C° 0 mm 3 mps 742 mmHg 56%
    09:00 +33°C° 0 mm 3 mps 743 mmHg 51%
    10:00 +35°C° 0 mm 4 mps 743 mmHg 46%
    11:00 +36°C° 0 mm 3 mps 742 mmHg 43%
    12:00 +36°C° 0 mm 3 mps 742 mmHg 41%
    13:00 +37°C° 0 mm 3 mps 741 mmHg 39%
    14:00 +37°C° 0 mm 3 mps 741 mmHg 43%
    15:00 +36°C° 0 mm 3 mps 740 mmHg 47%
    16:00 +36°C° 0 mm 3 mps 740 mmHg 51%
    17:00 +34°C° 0 mm 3 mps 740 mmHg 58%
    18:00 +30°C° 0 mm 2 mps 740 mmHg 65%
    19:00 +28°C° 0 mm 2 mps 741 mmHg 72%
    20:00 +28°C° 0 mm 3 mps 741 mmHg 70%
    21:00 +27°C° 0 mm 3 mps 742 mmHg 68%
    22:00 +27°C° 0 mm 3 mps 743 mmHg 66%
    23:00 +27°C° 0 mm 3 mps 743 mmHg 67%

    28 June, Friday

    Time Temperature Precipitation Wind Pressure Humidity
    00:00 +26°C° 0 mm 3 mps 742 mmHg 68%
    01:00 +26°C° 0 mm 3 mps 742 mmHg 68%
    02:00 +26°C° 0 mm 2 mps 742 mmHg 69%
    03:00 +26°C° 0 mm 2 mps 742 mmHg 69%
    04:00 +26°C° 0 mm 2 mps 742 mmHg 69%
    05:00 +26°C° 0 mm 2 mps 742 mmHg 70%
    06:00 +27°C° 0 mm 2 mps 742 mmHg 71%
    07:00 +27°C° 0 mm 2 mps 743 mmHg 72%
    08:00 +29°C° 0 mm 2 mps 743 mmHg 68%
    09:00 +31°C° 0 mm 2 mps 743 mmHg 65%
    10:00 +32°C° 0 mm 2 mps 743 mmHg 61%
    11:00 +34°C° 0 mm 2 mps 743 mmHg 60%
    12:00 +35°C° 0 mm 2 mps 742 mmHg 58%
    13:00 +36°C° 0 mm 2 mps 742 mmHg 57%
    14:00 +35°C° 0.2 mm 2 mps 741 mmHg 60%
    15:00 +35°C° 0.2 mm 2 mps 741 mmHg 62%
    16:00 +35°C° 0.2 mm 2 mps 740 mmHg 65%
    17:00 +32°C° 0.3 mm 2 mps 740 mmHg 71%
    18:00 +31°C° 0.3 mm 2 mps 741 mmHg 76%
    19:00 +29°C° 0.3 mm 2 mps 741 mmHg 82%
    20:00 +28°C° 0 mm 2 mps 742 mmHg 81%
    21:00 +28°C° 0 mm 3 mps 742 mmHg 81%
    22:00 +27°C° 0 mm 3 mps 743 mmHg 81%
    23:00 +27°C° 0 mm 3 mps 743 mmHg 80%

    29 June, Saturday

    Time Temperature Precipitation Wind Pressure Humidity
    00:00 +27°C° 0 mm 3 mps 742 mmHg 79%
    01:00 +26°C° 0 mm 3 mps 742 mmHg 78%
    02:00 +26°C° 0 mm 2 mps 742 mmHg 77%
    03:00 +26°C° 0 mm 2 mps 742 mmHg 76%
    04:00 +26°C° 0 mm 2 mps 741 mmHg 75%
    05:00 +27°C° 0 mm 2 mps 742 mmHg 74%
    06:00 +28°C° 0 mm 2 mps 742 mmHg 74%
    07:00 +28°C° 0 mm 1 mps 743 mmHg 73%
    08:00 +30°C° 0.1 mm 1 mps 743 mmHg 69%
    09:00 +32°C° 0.1 mm 2 mps 743 mmHg 65%
    10:00 +35°C° 0.1 mm 2 mps 743 mmHg 61%
    11:00 +35°C° 0.3 mm 2 mps 743 mmHg 60%
    12:00 +36°C° 0.3 mm 2 mps 742 mmHg 60%
    13:00 +37°C° 0.3 mm 2 mps 742 mmHg 59%
    14:00 +36°C° 0.4 mm 1 mps 741 mmHg 59%
    15:00 +36°C° 0.4 mm 1 mps 741 mmHg 58%
    16:00 +36°C° 0.4 mm 1 mps 740 mmHg 58%
    17:00 +34°C° 0.2 mm 1 mps 741 mmHg 64%
    18:00 +32°C° 0.2 mm 2 mps 741 mmHg 70%
    19:00 +30°C° 0.2 mm 2 mps 741 mmHg 76%
    20:00 +29°C° 0.1 mm 2 mps 742 mmHg 76%
    21:00 +28°C° 0.1 mm 2 mps 742 mmHg 76%
    22:00 +27°C° 0.1 mm 2 mps 743 mmHg 76%
    23:00 +27°C° 0 mm 2 mps 743 mmHg 75%

    30 June, Sunday

    Time Temperature Precipitation Wind Pressure Humidity
    00:00 +27°C° 0 mm 2 mps 742 mmHg 73%
    01:00 +27°C° 0 mm 3 mps 742 mmHg 72%
    02:00 +27°C° 0 mm 3 mps 742 mmHg 72%
    03:00 +27°C° 0 mm 3 mps 742 mmHg 72%
    04:00 +28°C° 0 mm 3 mps 742 mmHg 72%
    05:00 +28°C° 0 mm 3 mps 742 mmHg 72%
    06:00 +29°C° 0 mm 3 mps 743 mmHg 72%
    07:00 +29°C° 0 mm 3 mps 743 mmHg 72%
    08:00 +31°C° 0 mm 3 mps 743 mmHg 66%
    09:00 +34°C° 0 mm 3 mps 743 mmHg 60%
    10:00 +35°C° 0 mm 3 mps 743 mmHg 54%
    11:00 +36°C° 0 mm 3 mps 742 mmHg 51%
    12:00 +37°C° 0 mm 3 mps 742 mmHg 48%
    13:00 +38°C° 0 mm 3 mps 741 mmHg 44%
    14:00 +38°C° 0.1 mm 3 mps 741 mmHg 47%
    15:00 +37°C° 0.1 mm 3 mps 740 mmHg 50%
    16:00 +37°C° 0.1 mm 2 mps 740 mmHg 53%
    17:00 +35°C° 0.1 mm 3 mps 740 mmHg 57%
    18:00 +33°C° 0.1 mm 3 mps 741 mmHg 62%
    19:00 +30°C° 0.1 mm 3 mps 741 mmHg 67%
    20:00 +29°C° 0 mm 3 mps 742 mmHg 68%
    21:00 +29°C° 0 mm 3 mps 742 mmHg 68%
    22:00 +28°C° 0 mm 3 mps 743 mmHg 69%
    23:00 +28°C° 0 mm 3 mps 742 mmHg 70%
    Show more